contact:dominique.lefevre@mio.osupytheas.fr, maurice.libes@osupytheas.fr, didier.mallarino@osupytheas.fr
Project:EMSO http://www.emso-fr.org/EMSO-France
Depth: 2436.0 m
Title:EMSO Ligure Ouest : Data MII capteur MICROCAT
DateTime_Computer,Latitude,Longitude,Temperature,Conductivity,Pressure,DateTime_Instrument
DateTime_Computer,Latitude,Longitude,degC,S m-1,dbar,DateTime_Instrument
2023-05-04T00:01:37Z,42.805,6.029,13.3033,4.60148,2470.646,2023-5-04T02:04:44Z
2023-05-04T00:04:40Z,42.805,6.029,13.3046,4.60135,2470.624,2023-5-04T02:07:47Z
2023-05-04T00:07:43Z,42.805,6.029,13.3042,4.60149,2470.646,2023-5-04T02:10:51Z
2023-05-04T00:10:46Z,42.805,6.029,13.3045,4.60144,2470.646,2023-5-04T02:13:54Z
2023-05-04T00:13:50Z,42.805,6.029,13.3029,4.60162,2470.646,2023-5-04T02:16:57Z
2023-05-04T00:16:53Z,42.805,6.029,13.3048,4.60132,2470.646,2023-5-04T02:20:00Z
2023-05-04T00:19:56Z,42.805,6.029,13.3039,4.60127,2470.646,2023-5-04T02:23:03Z
2023-05-04T00:22:59Z,42.805,6.029,13.3037,4.60144,2470.624,2023-5-04T02:26:06Z
2023-05-04T00:26:02Z,42.805,6.029,13.3039,4.60119,2470.637,2023-5-04T02:29:09Z
2023-05-04T00:29:05Z,42.805,6.029,13.3029,4.60139,2470.624,2023-5-04T02:32:12Z
2023-05-04T00:32:08Z,42.805,6.029,13.3039,4.60121,2470.61,2023-5-04T02:35:15Z
2023-05-04T00:35:11Z,42.805,6.029,13.3041,4.60123,2470.661,2023-5-04T02:38:18Z
2023-05-04T00:38:14Z,42.805,6.029,13.3034,4.60117,2470.6,2023-5-04T02:41:21Z
2023-05-04T00:41:17Z,42.805,6.029,13.3042,4.60137,2470.637,2023-5-04T02:44:24Z
2023-05-04T00:44:20Z,42.805,6.029,13.3046,4.60132,2470.624,2023-5-04T02:47:27Z
2023-05-04T00:47:23Z,42.805,6.029,13.3038,4.60148,2470.661,2023-5-04T02:50:31Z
2023-05-04T00:50:27Z,42.805,6.029,13.3040,4.60160,2470.637,2023-5-04T02:53:34Z
2023-05-04T00:53:30Z,42.805,6.029,13.3036,4.60145,2470.646,2023-5-04T02:56:37Z
2023-05-04T00:56:33Z,42.805,6.029,13.3041,4.60126,2470.637,2023-5-04T02:59:40Z
2023-05-04T00:59:36Z,42.805,6.029,13.3037,4.60142,2470.637,2023-5-04T03:02:43Z
2023-05-04T01:02:39Z,42.805,6.029,13.3041,4.60133,2470.646,2023-5-04T03:05:46Z
2023-05-04T01:05:42Z,42.805,6.029,13.3034,4.60125,2470.661,2023-5-04T03:08:49Z
2023-05-04T01:08:45Z,42.805,6.029,13.3048,4.60137,2470.646,2023-5-04T03:11:52Z
2023-05-04T01:11:48Z,42.805,6.029,13.3043,4.60141,2470.646,2023-5-04T03:14:55Z
2023-05-04T01:14:51Z,42.805,6.029,13.3039,4.60150,2470.646,2023-5-04T03:17:58Z
2023-05-04T01:17:54Z,42.805,6.029,13.3046,4.60159,2470.646,2023-5-04T03:21:01Z
2023-05-04T01:20:57Z,42.805,6.029,13.3048,4.60151,2470.637,2023-5-04T03:24:04Z
2023-05-04T01:24:00Z,42.805,6.029,13.3039,4.60129,2470.637,2023-5-04T03:27:07Z
2023-05-04T01:27:03Z,42.805,6.029,13.3040,4.60137,2470.646,2023-5-04T03:30:10Z
2023-05-04T01:30:06Z,42.805,6.029,13.3032,4.60150,2470.646,2023-5-04T03:33:14Z
2023-05-04T01:33:10Z,42.805,6.029,13.3040,4.60129,2470.661,2023-5-04T03:36:17Z
2023-05-04T01:36:13Z,42.805,6.029,13.3039,4.60129,2470.637,2023-5-04T03:39:20Z
2023-05-04T01:39:16Z,42.805,6.029,13.3042,4.60157,2470.624,2023-5-04T03:42:23Z
2023-05-04T01:42:19Z,42.805,6.029,13.3050,4.60145,2470.614,2023-5-04T03:45:26Z
2023-05-04T01:45:22Z,42.805,6.029,13.3044,4.60178,2470.67,2023-5-04T03:48:29Z
2023-05-04T01:48:25Z,42.805,6.029,13.3035,4.60176,2470.67,2023-5-04T03:51:32Z
2023-05-04T01:51:28Z,42.805,6.029,13.3047,4.60152,2470.637,2023-5-04T03:54:35Z
2023-05-04T01:54:31Z,42.805,6.029,13.3051,4.60164,2470.661,2023-5-04T03:57:38Z
2023-05-04T01:57:34Z,42.805,6.029,13.3052,4.60166,2470.684,2023-5-04T04:00:41Z
2023-05-04T02:00:37Z,42.805,6.029,13.3048,4.60170,2470.624,2023-5-04T04:03:44Z
2023-05-04T02:03:40Z,42.805,6.029,13.3073,4.60140,2470.684,2023-5-04T04:06:47Z
2023-05-04T02:06:43Z,42.805,6.029,13.3036,4.60156,2470.67,2023-5-04T04:09:51Z
2023-05-04T02:09:46Z,42.805,6.029,13.3044,4.60157,2470.67,2023-5-04T04:12:54Z
2023-05-04T02:12:49Z,42.805,6.029,13.3043,4.60094,2470.67,2023-5-04T04:15:57Z
2023-05-04T02:15:53Z,42.805,6.029,13.3040,4.60119,2470.684,2023-5-04T04:19:00Z
2023-05-04T02:18:56Z,42.805,6.029,13.3043,4.60142,2470.684,2023-5-04T04:22:03Z
2023-05-04T02:21:59Z,42.805,6.029,13.3048,4.60127,2470.684,2023-5-04T04:25:06Z
2023-05-04T02:25:02Z,42.805,6.029,13.3031,4.60132,2470.67,2023-5-04T04:28:09Z
2023-05-04T02:28:05Z,42.805,6.029,13.3043,4.60121,2470.684,2023-5-04T04:31:12Z
2023-05-04T02:31:08Z,42.805,6.029,13.3037,4.60152,2470.707,2023-5-04T04:34:15Z
2023-05-04T02:34:11Z,42.805,6.029,13.3041,4.60131,2470.684,2023-5-04T04:37:18Z
2023-05-04T02:37:14Z,42.805,6.029,13.3036,4.60132,2470.646,2023-5-04T04:40:21Z
2023-05-04T02:40:17Z,42.805,6.029,13.3029,4.60132,2470.67,2023-5-04T04:43:24Z
2023-05-04T02:43:20Z,42.805,6.029,13.3032,4.60119,2470.693,2023-5-04T04:46:27Z
2023-05-04T02:46:23Z,42.805,6.029,13.3039,4.60122,2470.684,2023-5-04T04:49:30Z
2023-05-04T02:49:26Z,42.805,6.029,13.3031,4.60120,2470.646,2023-5-04T04:52:34Z
2023-05-04T02:52:29Z,42.805,6.029,13.3035,4.60110,2470.717,2023-5-04T04:55:37Z
2023-05-04T02:55:33Z,42.805,6.029,13.3036,4.60132,2470.707,2023-5-04T04:58:40Z
2023-05-04T02:58:36Z,42.805,6.029,13.3044,4.60149,2470.73,2023-5-04T05:01:43Z
2023-05-04T03:01:39Z,42.805,6.029,13.3030,4.60147,2470.67,2023-5-04T05:04:46Z
2023-05-04T03:04:42Z,42.805,6.029,13.3035,4.60122,2470.707,2023-5-04T05:07:49Z
2023-05-04T03:07:45Z,42.805,6.029,13.3036,4.60140,2470.67,2023-5-04T05:10:52Z
2023-05-04T03:10:48Z,42.805,6.029,13.3039,4.60128,2470.67,2023-5-04T05:13:55Z
2023-05-04T03:13:51Z,42.805,6.029,13.3039,4.60151,2470.74,2023-5-04T05:16:58Z
2023-05-04T03:16:54Z,42.805,6.029,13.3032,4.60147,2470.74,2023-5-04T05:20:01Z
2023-05-04T03:19:57Z,42.805,6.029,13.3054,4.60138,2470.73,2023-5-04T05:23:04Z
2023-05-04T03:23:00Z,42.805,6.029,13.3041,4.60153,2470.717,2023-5-04T05:26:07Z
2023-05-04T03:26:03Z,42.805,6.029,13.3045,4.60141,2470.754,2023-5-04T05:29:10Z
2023-05-04T03:29:06Z,42.805,6.029,13.3054,4.60149,2470.717,2023-5-04T05:32:14Z
2023-05-04T03:32:09Z,42.805,6.029,13.3056,4.60133,2470.73,2023-5-04T05:35:17Z
2023-05-04T03:35:12Z,42.805,6.029,13.3044,4.60150,2470.74,2023-5-04T05:38:20Z
2023-05-04T03:38:16Z,42.805,6.029,13.3064,4.60158,2470.717,2023-5-04T05:41:23Z
2023-05-04T03:41:19Z,42.805,6.029,13.3065,4.60166,2470.717,2023-5-04T05:44:26Z
2023-05-04T03:44:22Z,42.805,6.029,13.3060,4.60137,2470.74,2023-5-04T05:47:29Z
2023-05-04T03:47:25Z,42.805,6.029,13.3050,4.60162,2470.74,2023-5-04T05:50:32Z
2023-05-04T03:50:28Z,42.805,6.029,13.3041,4.60158,2470.74,2023-5-04T05:53:35Z
2023-05-04T03:53:31Z,42.805,6.029,13.3038,4.60157,2470.754,2023-5-04T05:56:38Z
2023-05-04T03:56:34Z,42.805,6.029,13.3041,4.60152,2470.73,2023-5-04T05:59:41Z
2023-05-04T03:59:37Z,42.805,6.029,13.3039,4.60135,2470.8,2023-5-04T06:02:44Z
2023-05-04T04:02:40Z,42.805,6.029,13.3048,4.60157,2470.73,2023-5-04T06:05:47Z
2023-05-04T04:05:43Z,42.805,6.029,13.3058,4.60132,2470.763,2023-5-04T06:08:50Z
2023-05-04T04:08:46Z,42.805,6.029,13.3052,4.60144,2470.763,2023-5-04T06:11:54Z
2023-05-04T04:11:49Z,42.805,6.029,13.3039,4.60138,2470.777,2023-5-04T06:14:57Z
2023-05-04T04:14:52Z,42.805,6.029,13.3045,4.60112,2470.763,2023-5-04T06:18:00Z
2023-05-04T04:17:56Z,42.805,6.029,13.3031,4.60131,2470.763,2023-5-04T06:21:03Z
2023-05-04T04:20:59Z,42.805,6.029,13.3050,4.60137,2470.787,2023-5-04T06:24:06Z
2023-05-04T04:24:02Z,42.805,6.029,13.3067,4.60150,2470.763,2023-5-04T06:27:09Z
2023-05-04T04:27:05Z,42.805,6.029,13.3041,4.60139,2470.777,2023-5-04T06:30:12Z
2023-05-04T04:30:08Z,42.805,6.029,13.3049,4.60122,2470.777,2023-5-04T06:33:15Z
2023-05-04T04:33:11Z,42.805,6.029,13.3038,4.60142,2470.8,2023-5-04T06:36:18Z
2023-05-04T04:36:14Z,42.805,6.029,13.3043,4.60123,2470.8,2023-5-04T06:39:21Z
2023-05-04T04:39:17Z,42.805,6.029,13.3059,4.60142,2470.8,2023-5-04T06:42:24Z
2023-05-04T04:42:20Z,42.805,6.029,13.3050,4.60155,2470.777,2023-5-04T06:45:27Z
2023-05-04T04:45:23Z,42.805,6.029,13.3054,4.60153,2470.8,2023-5-04T06:48:30Z
2023-05-04T04:48:26Z,42.805,6.029,13.3048,4.60150,2470.787,2023-5-04T06:51:33Z
2023-05-04T04:51:29Z,42.805,6.029,13.3067,4.60122,2470.787,2023-5-04T06:54:37Z
2023-05-04T04:54:32Z,42.805,6.029,13.3038,4.60123,2470.8,2023-5-04T06:57:40Z
2023-05-04T04:57:35Z,42.805,6.029,13.3048,4.60137,2470.8,2023-5-04T07:00:43Z
2023-05-04T05:00:39Z,42.805,6.029,13.3055,4.60146,2470.824,2023-5-04T07:03:46Z
2023-05-04T05:03:42Z,42.805,6.029,13.3069,4.60152,2470.8,2023-5-04T07:06:49Z
2023-05-04T05:06:45Z,42.805,6.029,13.3061,4.60116,2470.763,2023-5-04T07:09:52Z
2023-05-04T05:09:48Z,42.805,6.029,13.3054,4.60148,2470.787,2023-5-04T07:12:55Z
2023-05-04T05:12:51Z,42.805,6.029,13.3039,4.60152,2470.847,2023-5-04T07:15:58Z
2023-05-04T05:15:54Z,42.805,6.029,13.3034,4.60108,2470.787,2023-5-04T07:19:01Z
2023-05-04T05:18:57Z,42.805,6.029,13.3044,4.60121,2470.847,2023-5-04T07:22:04Z
2023-05-04T05:22:00Z,42.805,6.029,13.3031,4.60138,2470.81,2023-5-04T07:25:07Z
2023-05-04T05:25:03Z,42.805,6.029,13.3031,4.60167,2470.833,2023-5-04T07:28:10Z
2023-05-04T05:28:06Z,42.805,6.029,13.3050,4.60133,2470.81,2023-5-04T07:31:13Z
2023-05-04T05:31:09Z,42.805,6.029,13.3054,4.60131,2470.824,2023-5-04T07:34:16Z
2023-05-04T05:34:12Z,42.805,6.029,13.3040,4.60129,2470.847,2023-5-04T07:37:20Z
2023-05-04T05:37:15Z,42.805,6.029,13.3052,4.60134,2470.847,2023-5-04T07:40:23Z
2023-05-04T05:40:18Z,42.805,6.029,13.3048,4.60178,2470.81,2023-5-04T07:43:26Z
2023-05-04T05:43:22Z,42.805,6.029,13.3049,4.60104,2470.833,2023-5-04T07:46:29Z
2023-05-04T05:46:25Z,42.805,6.029,13.3055,4.60164,2470.82,2023-5-04T07:49:32Z
2023-05-04T05:49:28Z,42.805,6.029,13.3078,4.60133,2470.81,2023-5-04T07:52:35Z
2023-05-04T05:52:31Z,42.805,6.029,13.3060,4.60137,2470.857,2023-5-04T07:55:38Z
2023-05-04T05:55:34Z,42.805,6.029,13.3068,4.60135,2470.81,2023-5-04T07:58:41Z
2023-05-04T05:58:37Z,42.805,6.029,13.3071,4.60126,2470.824,2023-5-04T08:01:44Z
2023-05-04T06:01:40Z,42.805,6.029,13.3058,4.60158,2470.847,2023-5-04T08:04:47Z
2023-05-04T06:04:43Z,42.805,6.029,13.3073,4.60146,2470.824,2023-5-04T08:07:50Z
2023-05-04T06:07:46Z,42.805,6.029,13.3084,4.60155,2470.824,2023-5-04T08:10:53Z
2023-05-04T06:10:49Z,42.805,6.029,13.3065,4.60138,2470.824,2023-5-04T08:13:56Z
2023-05-04T06:13:52Z,42.805,6.029,13.3052,4.60157,2470.81,2023-5-04T08:17:00Z
2023-05-04T06:16:55Z,42.805,6.029,13.3076,4.60161,2470.81,2023-5-04T08:20:03Z
2023-05-04T06:19:58Z,42.805,6.029,13.3053,4.60157,2470.824,2023-5-04T08:23:06Z
2023-05-04T06:23:02Z,42.805,6.029,13.3063,4.60142,2470.8,2023-5-04T08:26:09Z
2023-05-04T06:26:05Z,42.805,6.029,13.3087,4.60151,2470.81,2023-5-04T08:29:12Z
2023-05-04T06:29:08Z,42.805,6.029,13.3089,4.60141,2470.847,2023-5-04T08:32:15Z
2023-05-04T06:32:11Z,42.805,6.029,13.3090,4.60142,2470.847,2023-5-04T08:35:18Z
2023-05-04T06:35:14Z,42.805,6.029,13.3072,4.60138,2470.871,2023-5-04T08:38:21Z
2023-05-04T06:38:17Z,42.805,6.029,13.3090,4.60190,2470.824,2023-5-04T08:41:24Z
2023-05-04T06:41:20Z,42.805,6.029,13.3088,4.60179,2470.847,2023-5-04T08:44:27Z
2023-05-04T06:44:23Z,42.805,6.029,13.3085,4.60197,2470.833,2023-5-04T08:47:30Z
2023-05-04T06:47:26Z,42.805,6.029,13.3105,4.60179,2470.833,2023-5-04T08:50:33Z
2023-05-04T06:50:29Z,42.805,6.029,13.3092,4.60148,2470.787,2023-5-04T08:53:36Z
2023-05-04T06:53:32Z,42.805,6.029,13.3081,4.60173,2470.824,2023-5-04T08:56:40Z
2023-05-04T06:56:35Z,42.805,6.029,13.3069,4.60155,2470.81,2023-5-04T08:59:43Z
2023-05-04T06:59:38Z,42.805,6.029,13.3067,4.60160,2470.81,2023-5-04T09:02:46Z
2023-05-04T07:02:41Z,42.805,6.029,13.3076,4.60150,2470.833,2023-5-04T09:05:49Z
2023-05-04T07:05:45Z,42.805,6.029,13.3081,4.60196,2470.857,2023-5-04T09:08:52Z
2023-05-04T07:08:48Z,42.805,6.029,13.3076,4.60162,2470.824,2023-5-04T09:11:55Z
2023-05-04T07:11:51Z,42.805,6.029,13.3088,4.60194,2470.81,2023-5-04T09:14:58Z
2023-05-04T07:14:54Z,42.805,6.029,13.3092,4.60157,2470.833,2023-5-04T09:18:01Z
2023-05-04T07:17:57Z,42.805,6.029,13.3073,4.60131,2470.824,2023-5-04T09:21:04Z
2023-05-04T07:21:00Z,42.805,6.029,13.3062,4.60190,2470.75,2023-5-04T09:24:07Z
2023-05-04T07:24:03Z,42.805,6.029,13.3054,4.60170,2470.824,2023-5-04T09:27:10Z
2023-05-04T07:27:06Z,42.805,6.029,13.3078,4.60226,2470.796,2023-5-04T09:30:13Z
2023-05-04T07:30:09Z,42.805,6.029,13.3070,4.60128,2470.8,2023-5-04T09:33:16Z
2023-05-04T07:33:12Z,42.805,6.029,13.3061,4.60151,2470.824,2023-5-04T09:36:20Z
2023-05-04T07:36:15Z,42.805,6.029,13.3095,4.60167,2470.81,2023-5-04T09:39:23Z
2023-05-04T07:39:18Z,42.805,6.029,13.3093,4.60141,2470.8,2023-5-04T09:42:26Z
2023-05-04T07:42:21Z,42.805,6.029,13.3099,4.60157,2470.81,2023-5-04T09:45:29Z
2023-05-04T07:45:25Z,42.805,6.029,13.3099,4.60119,2470.787,2023-5-04T09:48:32Z
2023-05-04T07:48:28Z,42.805,6.029,13.3093,4.60122,2470.8,2023-5-04T09:51:35Z
2023-05-04T07:51:31Z,42.805,6.029,13.3088,4.60102,2470.777,2023-5-04T09:54:38Z
2023-05-04T07:54:34Z,42.805,6.029,13.3071,4.60127,2470.787,2023-5-04T09:57:41Z
2023-05-04T07:57:37Z,42.805,6.029,13.3060,4.60151,2470.777,2023-5-04T10:00:44Z
2023-05-04T08:00:40Z,42.805,6.029,13.3089,4.60131,2470.763,2023-5-04T10:03:47Z
2023-05-04T08:03:43Z,42.805,6.029,13.3056,4.60144,2470.8,2023-5-04T10:06:50Z
2023-05-04T08:06:46Z,42.805,6.029,13.3077,4.60140,2470.8,2023-5-04T10:09:53Z
2023-05-04T08:09:49Z,42.805,6.029,13.3078,4.60141,2470.8,2023-5-04T10:12:56Z
2023-05-04T08:12:52Z,42.805,6.029,13.3092,4.60119,2470.81,2023-5-04T10:16:00Z
2023-05-04T08:15:55Z,42.805,6.029,13.3097,4.60125,2470.8,2023-5-04T10:19:03Z
2023-05-04T08:18:58Z,42.805,6.029,13.3078,4.60127,2470.777,2023-5-04T10:22:06Z
2023-05-04T08:22:01Z,42.805,6.029,13.3077,4.60119,2470.763,2023-5-04T10:25:09Z
2023-05-04T08:25:05Z,42.805,6.029,13.3083,4.60159,2470.777,2023-5-04T10:28:12Z
2023-05-04T08:28:08Z,42.805,6.029,13.3089,4.60156,2470.777,2023-5-04T10:31:15Z
2023-05-04T08:31:11Z,42.805,6.029,13.3067,4.60125,2470.74,2023-5-04T10:34:18Z
2023-05-04T08:34:14Z,42.805,6.029,13.3084,4.60167,2470.74,2023-5-04T10:37:21Z
2023-05-04T08:37:17Z,42.805,6.029,13.3075,4.60160,2470.777,2023-5-04T10:40:24Z
2023-05-04T08:40:20Z,42.805,6.029,13.3105,4.60113,2470.777,2023-5-04T10:43:27Z
2023-05-04T08:43:23Z,42.805,6.029,13.3089,4.60165,2470.754,2023-5-04T10:46:30Z
2023-05-04T08:46:26Z,42.805,6.029,13.3103,4.60142,2470.754,2023-5-04T10:49:33Z
2023-05-04T08:49:29Z,42.805,6.029,13.3044,4.60165,2470.717,2023-5-04T10:52:36Z
2023-05-04T08:52:32Z,42.805,6.029,13.3032,4.60136,2470.777,2023-5-04T10:55:40Z
2023-05-04T08:55:35Z,42.805,6.029,13.3038,4.60175,2470.754,2023-5-04T10:58:43Z
2023-05-04T08:58:38Z,42.805,6.029,13.3056,4.60156,2470.777,2023-5-04T11:01:46Z
2023-05-04T09:01:42Z,42.805,6.029,13.3063,4.60157,2470.754,2023-5-04T11:04:49Z
2023-05-04T09:04:45Z,42.805,6.029,13.3071,4.60122,2470.754,2023-5-04T11:07:52Z
2023-05-04T09:07:48Z,42.805,6.029,13.3076,4.60146,2470.717,2023-5-04T11:10:55Z
2023-05-04T09:10:51Z,42.805,6.029,13.3077,4.60137,2470.717,2023-5-04T11:13:58Z
2023-05-04T09:13:54Z,42.805,6.029,13.3075,4.60129,2470.73,2023-5-04T11:17:01Z
2023-05-04T09:16:57Z,42.805,6.029,13.3063,4.60120,2470.74,2023-5-04T11:20:04Z
2023-05-04T09:20:00Z,42.805,6.029,13.3069,4.60119,2470.717,2023-5-04T11:23:07Z
2023-05-04T09:23:03Z,42.805,6.029,13.3056,4.60132,2470.73,2023-5-04T11:26:10Z
2023-05-04T09:26:06Z,42.805,6.029,13.3072,4.60130,2470.707,2023-5-04T11:29:13Z
2023-05-04T09:29:09Z,42.805,6.029,13.3069,4.60098,2470.717,2023-5-04T11:32:16Z
2023-05-04T09:32:12Z,42.805,6.029,13.3067,4.60141,2470.73,2023-5-04T11:35:20Z
2023-05-04T09:35:15Z,42.805,6.029,13.3064,4.60142,2470.717,2023-5-04T11:38:23Z
2023-05-04T09:38:18Z,42.805,6.029,13.3048,4.60131,2470.717,2023-5-04T11:41:26Z
2023-05-04T09:41:22Z,42.805,6.029,13.3062,4.60107,2470.707,2023-5-04T11:44:29Z
2023-05-04T09:44:25Z,42.805,6.029,13.3071,4.60102,2470.73,2023-5-04T11:47:32Z
2023-05-04T09:47:28Z,42.805,6.029,13.3052,4.60119,2470.707,2023-5-04T11:50:35Z
2023-05-04T09:50:31Z,42.805,6.029,13.3058,4.60107,2470.717,2023-5-04T11:53:38Z
2023-05-04T09:53:34Z,42.805,6.029,13.3051,4.60109,2470.707,2023-5-04T11:56:41Z
2023-05-04T09:56:37Z,42.805,6.029,13.3060,4.60127,2470.67,2023-5-04T11:59:44Z
2023-05-04T09:59:40Z,42.805,6.029,13.3089,4.60141,2470.684,2023-5-04T12:02:47Z
2023-05-04T10:02:43Z,42.805,6.029,13.3081,4.60134,2470.684,2023-5-04T12:05:50Z
2023-05-04T10:05:46Z,42.805,6.029,13.3060,4.60138,2470.684,2023-5-04T12:08:53Z
2023-05-04T10:08:49Z,42.805,6.029,13.3043,4.60127,2470.707,2023-5-04T12:11:57Z
2023-05-04T10:11:52Z,42.805,6.029,13.3067,4.60110,2470.67,2023-5-04T12:15:00Z
2023-05-04T10:14:55Z,42.805,6.029,13.3084,4.60110,2470.73,2023-5-04T12:18:03Z
2023-05-04T10:17:58Z,42.805,6.029,13.3090,4.60119,2470.707,2023-5-04T12:21:06Z
2023-05-04T10:21:02Z,42.805,6.029,13.3077,4.60118,2470.661,2023-5-04T12:24:09Z
2023-05-04T10:24:05Z,42.805,6.029,13.3071,4.60109,2470.646,2023-5-04T12:27:12Z
2023-05-04T10:27:08Z,42.805,6.029,13.3087,4.60114,2470.684,2023-5-04T12:30:15Z
2023-05-04T10:30:11Z,42.805,6.029,13.3098,4.60137,2470.661,2023-5-04T12:33:18Z
2023-05-04T10:33:14Z,42.805,6.029,13.3065,4.60119,2470.67,2023-5-04T12:36:21Z
2023-05-04T10:36:17Z,42.805,6.029,13.3096,4.60132,2470.684,2023-5-04T12:39:24Z
2023-05-04T10:39:20Z,42.805,6.029,13.3036,4.60146,2470.646,2023-5-04T12:42:27Z
2023-05-04T10:42:23Z,42.805,6.029,13.3024,4.60102,2470.684,2023-5-04T12:45:30Z
2023-05-04T10:45:26Z,42.805,6.029,13.3027,4.60084,2470.684,2023-5-04T12:48:34Z
2023-05-04T10:48:29Z,42.805,6.029,13.3020,4.60085,2470.693,2023-5-04T12:51:37Z
2023-05-04T10:51:32Z,42.805,6.029,13.3024,4.60081,2470.67,2023-5-04T12:54:40Z
2023-05-04T10:54:35Z,42.805,6.029,13.3021,4.60079,2470.67,2023-5-04T12:57:43Z
2023-05-04T10:57:39Z,42.805,6.029,13.3021,4.60081,2470.661,2023-5-04T13:00:46Z
2023-05-04T11:00:42Z,42.805,6.029,13.3023,4.60080,2470.646,2023-5-04T13:03:49Z
2023-05-04T11:03:45Z,42.805,6.029,13.3018,4.60084,2470.646,2023-5-04T13:06:52Z
2023-05-04T11:06:48Z,42.805,6.029,13.3020,4.60093,2470.646,2023-5-04T13:09:55Z
2023-05-04T11:09:51Z,42.805,6.029,13.3035,4.60106,2470.661,2023-5-04T13:12:58Z
2023-05-04T11:12:54Z,42.805,6.029,13.3020,4.60095,2470.684,2023-5-04T13:16:01Z
2023-05-04T11:15:57Z,42.805,6.029,13.3022,4.60087,2470.646,2023-5-04T13:19:04Z
2023-05-04T11:19:00Z,42.805,6.029,13.3026,4.60085,2470.646,2023-5-04T13:22:07Z
2023-05-04T11:22:03Z,42.805,6.029,13.3026,4.60087,2470.67,2023-5-04T13:25:10Z
2023-05-04T11:25:06Z,42.805,6.029,13.3021,4.60092,2470.637,2023-5-04T13:28:14Z
2023-05-04T11:28:09Z,42.805,6.029,13.3022,4.60085,2470.661,2023-5-04T13:31:17Z
2023-05-04T11:31:12Z,42.805,6.029,13.3021,4.60079,2470.661,2023-5-04T13:34:20Z
2023-05-04T11:34:15Z,42.805,6.029,13.3021,4.60081,2470.661,2023-5-04T13:37:23Z
2023-05-04T11:37:18Z,42.805,6.029,13.3027,4.60079,2470.624,2023-5-04T13:40:26Z
2023-05-04T11:40:22Z,42.805,6.029,13.3022,4.60079,2470.637,2023-5-04T13:43:29Z
2023-05-04T11:43:25Z,42.805,6.029,13.3022,4.60078,2470.637,2023-5-04T13:46:32Z
2023-05-04T11:46:28Z,42.805,6.029,13.3018,4.60082,2470.61,2023-5-04T13:49:35Z
2023-05-04T11:49:31Z,42.805,6.029,13.3019,4.60081,2470.624,2023-5-04T13:52:38Z
2023-05-04T11:52:34Z,42.805,6.029,13.3022,4.60081,2470.577,2023-5-04T13:55:41Z
2023-05-04T11:55:37Z,42.805,6.029,13.3020,4.60084,2470.624,2023-5-04T13:58:44Z
2023-05-04T11:58:40Z,42.805,6.029,13.3020,4.60079,2470.661,2023-5-04T14:01:47Z
2023-05-04T12:01:43Z,42.805,6.029,13.3022,4.60081,2470.637,2023-5-04T14:04:51Z
2023-05-04T12:04:46Z,42.805,6.029,13.3019,4.60084,2470.624,2023-5-04T14:07:54Z
2023-05-04T12:07:49Z,42.805,6.029,13.3021,4.60078,2470.6,2023-5-04T14:10:57Z
2023-05-04T12:10:52Z,42.805,6.029,13.3023,4.60078,2470.624,2023-5-04T14:14:00Z
2023-05-04T12:13:55Z,42.805,6.029,13.3019,4.60077,2470.661,2023-5-04T14:17:03Z
2023-05-04T12:16:59Z,42.805,6.029,13.3023,4.60078,2470.614,2023-5-04T14:20:06Z
2023-05-04T12:20:02Z,42.805,6.029,13.3018,4.60077,2470.6,2023-5-04T14:23:09Z
2023-05-04T12:23:05Z,42.805,6.029,13.3022,4.60076,2470.624,2023-5-04T14:26:12Z
2023-05-04T12:26:08Z,42.805,6.029,13.3024,4.60077,2470.624,2023-5-04T14:29:15Z
2023-05-04T12:29:11Z,42.805,6.029,13.3021,4.60077,2470.661,2023-5-04T14:32:18Z
2023-05-04T12:32:14Z,42.805,6.029,13.3019,4.60078,2470.637,2023-5-04T14:35:21Z
2023-05-04T12:35:17Z,42.805,6.029,13.3023,4.60078,2470.614,2023-5-04T14:38:25Z
2023-05-04T12:38:20Z,42.805,6.029,13.3021,4.60077,2470.624,2023-5-04T14:41:28Z
2023-05-04T12:41:23Z,42.805,6.029,13.3021,4.60078,2470.637,2023-5-04T14:44:31Z
2023-05-04T12:44:26Z,42.805,6.029,13.3015,4.60077,2470.624,2023-5-04T14:47:34Z
2023-05-04T12:47:29Z,42.805,6.029,13.3021,4.60078,2470.624,2023-5-04T14:50:37Z
2023-05-04T12:50:32Z,42.805,6.029,13.3024,4.60077,2470.624,2023-5-04T14:53:40Z
2023-05-04T12:53:36Z,42.805,6.029,13.3021,4.60077,2470.614,2023-5-04T14:56:43Z
2023-05-04T12:56:39Z,42.805,6.029,13.3019,4.60077,2470.6,2023-5-04T14:59:46Z
2023-05-04T12:59:42Z,42.805,6.029,13.3021,4.60077,2470.6,2023-5-04T15:02:49Z
2023-05-04T13:02:45Z,42.805,6.029,13.3020,4.60078,2470.624,2023-5-04T15:05:52Z
2023-05-04T13:05:48Z,42.805,6.029,13.3021,4.60075,2470.624,2023-5-04T15:08:55Z
2023-05-04T13:08:51Z,42.805,6.029,13.3019,4.60076,2470.637,2023-5-04T15:11:58Z
2023-05-04T13:11:54Z,42.805,6.029,13.3021,4.60076,2470.577,2023-5-04T15:15:01Z
2023-05-04T13:14:57Z,42.805,6.029,13.3019,4.60076,2470.637,2023-5-04T15:18:05Z
2023-05-04T13:18:00Z,42.805,6.029,13.3021,4.60077,2470.6,2023-5-04T15:21:08Z
2023-05-04T13:21:03Z,42.805,6.029,13.3024,4.60074,2470.624,2023-5-04T15:24:11Z
2023-05-04T13:24:06Z,42.805,6.029,13.3023,4.60080,2470.577,2023-5-04T15:27:14Z
2023-05-04T13:27:09Z,42.805,6.029,13.3021,4.60079,2470.637,2023-5-04T15:30:17Z
2023-05-04T13:30:13Z,42.805,6.029,13.3023,4.60079,2470.637,2023-5-04T15:33:20Z
2023-05-04T13:33:16Z,42.805,6.029,13.3022,4.60077,2470.577,2023-5-04T15:36:23Z
2023-05-04T13:36:19Z,42.805,6.029,13.3021,4.60080,2470.6,2023-5-04T15:39:26Z
2023-05-04T13:39:22Z,42.805,6.029,13.3019,4.60081,2470.6,2023-5-04T15:42:29Z
2023-05-04T13:42:25Z,42.805,6.029,13.3023,4.60079,2470.637,2023-5-04T15:45:32Z
2023-05-04T13:45:28Z,42.805,6.029,13.3019,4.60077,2470.637,2023-5-04T15:48:35Z
2023-05-04T13:48:31Z,42.805,6.029,13.3021,4.60079,2470.614,2023-5-04T15:51:38Z
2023-05-04T13:51:34Z,42.805,6.029,13.3018,4.60079,2470.591,2023-5-04T15:54:42Z
2023-05-04T13:54:37Z,42.805,6.029,13.3021,4.60079,2470.6,2023-5-04T15:57:45Z
2023-05-04T13:57:40Z,42.805,6.029,13.3020,4.60079,2470.6,2023-5-04T16:00:48Z
2023-05-04T14:00:43Z,42.805,6.029,13.3024,4.60080,2470.553,2023-5-04T16:03:51Z
2023-05-04T14:03:46Z,42.805,6.029,13.3024,4.60083,2470.591,2023-5-04T16:06:54Z
2023-05-04T14:06:49Z,42.805,6.029,13.3023,4.60076,2470.624,2023-5-04T16:09:57Z
2023-05-04T14:09:53Z,42.805,6.029,13.3023,4.60085,2470.624,2023-5-04T16:13:00Z
2023-05-04T14:12:56Z,42.805,6.029,13.3021,4.60079,2470.586,2023-5-04T16:16:03Z
2023-05-04T14:15:59Z,42.805,6.029,13.3020,4.60080,2470.624,2023-5-04T16:19:06Z
2023-05-04T14:19:02Z,42.805,6.029,13.3023,4.60076,2470.6,2023-5-04T16:22:09Z
2023-05-04T14:22:05Z,42.805,6.029,13.3024,4.60079,2470.624,2023-5-04T16:25:12Z
2023-05-04T14:25:08Z,42.805,6.029,13.3024,4.60081,2470.6,2023-5-04T16:28:15Z
2023-05-04T14:28:11Z,42.805,6.029,13.3019,4.60079,2470.624,2023-5-04T16:31:18Z
2023-05-04T14:31:14Z,42.805,6.029,13.3019,4.60079,2470.624,2023-5-04T16:34:22Z
2023-05-04T14:34:17Z,42.805,6.029,13.3022,4.60077,2470.637,2023-5-04T16:37:25Z
2023-05-04T14:37:20Z,42.805,6.029,13.3020,4.60079,2470.624,2023-5-04T16:40:28Z
2023-05-04T14:40:23Z,42.805,6.029,13.3024,4.60079,2470.624,2023-5-04T16:43:31Z
2023-05-04T14:43:26Z,42.805,6.029,13.3024,4.60077,2470.637,2023-5-04T16:46:34Z
2023-05-04T14:46:30Z,42.805,6.029,13.3021,4.60082,2470.646,2023-5-04T16:49:37Z
2023-05-04T14:49:33Z,42.805,6.029,13.3021,4.60078,2470.661,2023-5-04T16:52:40Z
2023-05-04T14:52:36Z,42.805,6.029,13.3024,4.60077,2470.661,2023-5-04T16:55:43Z
2023-05-04T14:55:39Z,42.805,6.029,13.3026,4.60076,2470.637,2023-5-04T16:58:46Z
2023-05-04T14:58:42Z,42.805,6.029,13.3019,4.60076,2470.646,2023-5-04T17:01:49Z
2023-05-04T15:01:45Z,42.805,6.029,13.3022,4.60079,2470.624,2023-5-04T17:04:52Z
2023-05-04T15:04:48Z,42.805,6.029,13.3020,4.60078,2470.637,2023-5-04T17:07:55Z
2023-05-04T15:07:51Z,42.805,6.029,13.3021,4.60076,2470.67,2023-5-04T17:10:59Z
2023-05-04T15:10:54Z,42.805,6.029,13.3021,4.60077,2470.646,2023-5-04T17:14:02Z
2023-05-04T15:13:57Z,42.805,6.029,13.3026,4.60077,2470.637,2023-5-04T17:17:05Z